#timestamp,LO_Frequency,Hit,StdDev 
1507986015.6,286047002.1,N
1507986035.5,286047000.1,N
1507986055.3,286047002.7,N
1507986075.2,286046998.1,N
1507986095.9,286047000.5,N
1507986115.7,286047000.4,N
1507986135.6,286047000.8,N
1507986155.4,286046997.1,N
1507986175.2,286046996.7,N
1507986195.1,286046995.0,N
1507986196.0,286046995.0,N
1507986215.8,286046994.9,N
1507986235.7,286046997.2,N
1507986255.5,286046996.5,N
1507986275.3,286046998.3,N
1507986295.2,286046997.0,N
1507986315.0,286046999.5,N
1507986315.9,286046999.5,N
1507986335.8,286046998.3,N
1507986355.6,286046999.5,N
1507986375.4,286046999.4,N
1507986395.3,286046998.8,N
1507986415.1,286046997.7,N
1507986435.8,286046996.7,N
1507986455.7,286046995.8,N
1507986475.5,286046995.8,N
1507986495.3,286046994.9,N
1507986515.2,286046999.5,N
1507986535.0,286046997.4,N
1507986535.9,286046997.4,N
1507986555.8,286046995.3,N
1507986575.6,286046995.1,N
1507986595.4,286046993.3,Y
1507986615.3,286046996.7,P
1507986635.1,286046998.1,P
1507986655.9,286047002.4,P
1507986675.7,286047000.3,N
1507986695.5,286047000.3,N
1507986715.4,286046998.3,N
1507986735.2,286047000.6,N
1507986755.0,286047002.8,N
1507986755.9,286047002.8,N
1507986775.8,286047000.6,N
1507986795.6,286047000.2,N
1507986815.5,286046998.3,N
1507986835.3,286047001.1,N
1507986855.1,286046998.1,N
1507986875.9,286046998.9,N
1507986895.7,286047000.4,N
1507986915.5,286047000.2,N
1507986935.4,286047001.2,N
1507986955.2,286047001.0,N
1507986975.1,286046998.4,N
1507986976.0,286046998.4,N
1507986995.8,286046996.5,N
1507987015.6,286046997.1,N
1507987035.5,286046997.5,N
1507987055.3,286046999.6,N
1507987075.1,286046999.5,N
1507987095.9,286046998.1,N
1507987115.7,286046996.7,N
1507987135.6,286046999.4,N
1507987155.4,286046997.2,N
1507987175.2,286046999.5,N
1507987195.1,286046996.6,N
1507987196.0,286046996.6,N
1507987215.8,286046995.4,N
1507987235.6,286046995.4,N
1507987255.5,286046995.9,N
1507987275.3,286046995.4,N
1507987295.2,286046996.1,N
1507987315.9,286046995.4,N
1507987335.7,286046998.0,N
1507987355.6,286046995.2,N
1507987375.4,286046994.9,N
1507987395.2,286046995.7,N
1507987415.1,286046995.0,N
1507987416.0,286046995.0,N
1507987435.8,286046994.9,N
1507987455.7,286046997.9,N
1507987475.5,286046995.7,N
1507987495.3,286046995.2,N
1507987515.2,286046995.6,N
1507987535.0,286046996.6,N
1507987535.9,286046996.6,N
1507987555.8,286046999.2,N
1507987575.6,286046996.6,N
1507987595.4,286046996.8,N
1507987615.3,286046997.4,N
1507987635.1,286046996.5,N
1507987655.8,286046997.5,N
1507987675.7,286046997.9,N
1507987695.5,286046998.0,N
1507987715.4,286046996.9,N
1507987735.2,286046996.8,N
1507987755.0,286046997.3,N
1507987755.9,286046997.3,N
1507987775.8,286046996.8,N
1507987795.7,286046999.4,N
1507987815.5,286046998.6,N
1507987835.3,286046999.1,N
1507987855.2,286046998.9,N
1507987875.0,286046997.1,N
1507987875.9,286046997.1,N
1507987895.7,286046996.5,N
1507987915.6,286046996.7,N
1507987935.4,286046997.7,N
1507987955.3,286046999.4,N
1507987975.1,286046999.2,N
1507987995.8,286046998.9,N
1507988015.7,286046996.9,N
1507988035.5,286046999.1,N
1507988055.4,286046999.5,N
1507988075.2,286046999.6,N
1507988095.0,286046998.7,N
1507988095.9,286046998.7,N
1507988115.8,286046998.6,N
1507988135.6,286046998.1,N
1507988155.5,286046998.6,N
1507988175.3,286046998.4,N
1507988195.1,286046998.6,N
1507988215.9,286046999.1,N
1507988235.7,286046999.6,N
1507988255.5,286046999.2,N
1507988275.4,286046998.9,N
1507988295.2,286047001.1,N
1507988315.1,286047000.8,N
1507988316.0,286047000.8,N
1507988335.8,286047002.4,N
1507988355.6,286047002.7,N
1507988375.5,286047000.8,N
1507988395.3,286047000.8,N
1507988415.2,286046998.6,N
1507988435.9,286046998.9,N
1507988455.7,286046999.2,N
1507988475.6,286046998.9,N
1507988495.4,286046998.9,N
1507988515.2,286046998.4,N
1507988535.1,286046999.3,N
1507988536.0,286046999.3,N
1507988555.8,286046999.1,N
1507988575.7,286046999.5,N
1507988595.5,286046998.8,N
1507988645.4,286046999.9,E
1507988655.3,286047001.2,N
1507988675.1,286047000.1,P
1507988695.9,286046999.9,N
1507988715.7,286046998.7,N
1507988735.5,286046999.8,N
1507988755.4,286047000.9,N
1507988775.2,286047000.1,N
1507988795.1,286047000.6,N
1507988796.0,286047000.6,N
1507988815.8,286047000.8,N
1507988835.6,286047001.2,N
1507988855.5,286046998.1,N
1507988875.3,286046998.4,N
1507988895.2,286046998.6,N
1507988915.9,286046998.1,N
1507988935.7,286047000.9,N
1507988955.6,286047001.1,N
1507988975.4,286046998.1,N
1507988995.2,286047001.0,N
1507989015.1,286046998.1,N
1507989016.0,286047011.9,Y
1507989035.8,286047000.3,P
1507989055.7,286046999.8,N
1507989075.5,286047000.6,N
1507989095.3,286046998.8,Y
1507989115.2,286047001.0,P
1507989135.0,286046999.0,N
1507989135.9,286046999.0,N
1507989155.8,286046999.0,N
1507989175.6,286047000.6,N
1507989195.4,286047000.3,N
1507989215.3,286047000.9,N
1507989235.1,286047000.6,N
1507989255.9,286046999.8,N
1507989275.7,286046998.5,N
1507989295.5,286047000.6,N
1507989315.4,286047002.6,Y
1507989335.2,286046999.8,P
1507989355.0,286047002.2,P
1507989356.0,286047002.2,N
1507989375.8,286047002.0,N
1507989395.6,286047002.2,N
1507989415.5,286047002.4,N
1507989435.3,286047000.1,N
1507989455.1,286046999.8,N
1507989475.9,286046999.7,N
1507989495.7,286046999.8,N
1507989515.5,286047002.5,N
1507989535.4,286047002.6,N
1507989555.2,286047002.5,N
1507989575.1,286047002.1,N
1507989576.0,286047002.1,N
1507989595.8,286047002.1,N
